STW457 OIIE-LTDB

Flight info

Callsign STW457
Flight time N/A
Altitude 38000
Route RUS R661 ZAJ/N0421F280 G208 GETOB/N0459F380 G208 ALRAM UT888 BAYIR UW73 DYB UW716 ELGEX W716 SUGAT UW716 GAZ/N0418F280 W74 MILBA
Aircraft B38M/M-SDE1FGHILORVWXY/HB1

Departure

Time N/A
Airport Imam Khomeini International Airport (OIIE)

Arrival

Time 2026-04-13 14:15
Airport Çukurova International Airport (LTDB)
Time Latitude Longitude Altitude Speed Heading
2026-04-13 12:41 37.37778 46.24118 37941 ft 440 kts 285°
2026-04-13 12:41 37.39761 46.16840 37928 ft 440 kts 285°
2026-04-13 12:42 37.41741 46.09551 37925 ft 440 kts 285°
2026-04-13 12:42 37.43712 46.02278 37952 ft 436 kts 285°
2026-04-13 12:43 37.45639 45.95145 37918 ft 431 kts 285°
2026-04-13 12:43 37.47567 45.87989 37905 ft 431 kts 285°
2026-04-13 12:44 37.49487 45.80843 37898 ft 432 kts 285°
2026-04-13 12:44 37.51409 45.73679 37923 ft 431 kts 285°
2026-04-13 12:45 37.53319 45.66541 37880 ft 429 kts 285°
2026-04-13 12:45 37.55228 45.59404 37884 ft 430 kts 285°
2026-04-13 12:46 37.57132 45.52267 37875 ft 430 kts 285°
2026-04-13 12:46 37.59031 45.45135 37877 ft 430 kts 285°
2026-04-13 12:47 37.60929 45.37991 37868 ft 429 kts 285°
2026-04-13 12:47 37.62809 45.30891 37865 ft 429 kts 285°
2026-04-13 12:48 37.64699 45.23737 37861 ft 429 kts 285°
2026-04-13 12:48 37.66583 45.16584 37870 ft 429 kts 285°
2026-04-13 12:49 37.68424 45.09453 37853 ft 426 kts 281°
2026-04-13 12:49 37.68973 45.02079 37842 ft 424 kts 272°
2026-04-13 12:50 37.69369 44.94676 37892 ft 424 kts 272°
2026-04-13 12:50 37.69722 44.87249 37902 ft 423 kts 272°
2026-04-13 12:51 37.70062 44.79848 37899 ft 421 kts 272°
2026-04-13 12:51 37.70397 44.72452 37900 ft 422 kts 272°
2026-04-13 12:52 37.70735 44.65062 37934 ft 422 kts 274°
2026-04-13 12:52 37.71357 44.61468 37906 ft 422 kts 289°
2026-04-13 12:52 37.72455 44.58022 37932 ft 424 kts 288°
2026-04-13 12:53 37.74619 44.51089 37954 ft 425 kts 289°
2026-04-13 12:53 37.76848 44.44153 37947 ft 426 kts 289°
2026-04-13 12:54 37.79085 44.37230 37955 ft 425 kts 289°
2026-04-13 12:54 37.81319 44.30304 37952 ft 425 kts 289°
2026-04-13 12:55 37.83543 44.23394 37941 ft 424 kts 290°
2026-04-13 12:55 37.85750 44.16518 37965 ft 425 kts 289°
2026-04-13 12:56 37.87784 44.10166 37954 ft 424 kts 289°
2026-04-13 12:56 37.88158 44.08998 37953 ft 424 kts 289°
2026-04-13 12:57 37.94351 43.89564 37966 ft 425 kts 289°
2026-04-13 12:58 37.96553 43.82624 37984 ft 425 kts 289°
2026-04-13 12:58 37.98748 43.75687 37992 ft 425 kts 290°
2026-04-13 12:59 38.00943 43.68733 37984 ft 425 kts 289°
2026-04-13 12:59 38.03135 43.61772 38009 ft 425 kts 290°
2026-04-13 13:00 38.05320 43.54815 38013 ft 425 kts 289°
2026-04-13 13:00 38.07502 43.47850 38013 ft 425 kts 290°
2026-04-13 13:01 38.09684 43.40876 38029 ft 425 kts 290°
2026-04-13 13:01 38.11156 43.35933 38028 ft 422 kts 285°
2026-04-13 13:02 38.12931 43.28821 38006 ft 422 kts 286°
2026-04-13 13:02 38.14742 43.21723 38022 ft 422 kts 287°
2026-04-13 13:03 38.16550 43.14646 38025 ft 422 kts 287°
2026-04-13 13:03 38.18347 43.07591 38034 ft 422 kts 287°
2026-04-13 13:04 38.20152 43.00489 38025 ft 422 kts 287°
2026-04-13 13:04 38.21952 42.93389 38033 ft 421 kts 287°
2026-04-13 13:05 38.23747 42.86283 38016 ft 422 kts 287°
2026-04-13 13:05 38.25545 42.79151 38065 ft 423 kts 287°
2026-04-13 13:06 38.27332 42.72038 38053 ft 421 kts 287°
2026-04-13 13:06 38.29113 42.64929 38050 ft 422 kts 287°
2026-04-13 13:07 38.30891 42.57810 38067 ft 422 kts 287°
2026-04-13 13:07 38.32664 42.50692 38069 ft 422 kts 287°
2026-04-13 13:08 38.34434 42.43563 38076 ft 422 kts 287°
2026-04-13 13:08 38.36196 42.36448 38067 ft 420 kts 287°
2026-04-13 13:09 38.37944 42.29366 38067 ft 417 kts 287°
2026-04-13 13:09 38.39680 42.22313 38060 ft 416 kts 287°
2026-04-13 13:10 38.41414 42.15251 38057 ft 418 kts 287°
2026-04-13 13:10 38.42852 42.09371 38057 ft 418 kts 287°
2026-04-13 13:11 38.44861 42.01141 38058 ft 418 kts 287°
2026-04-13 13:11 38.46584 41.94059 38049 ft 418 kts 287°
2026-04-13 13:12 38.48024 41.88127 38059 ft 418 kts 287°
2026-04-13 13:12 38.49739 41.81038 38053 ft 418 kts 287°
2026-04-13 13:13 38.51439 41.73990 38046 ft 418 kts 287°
2026-04-13 13:13 38.53145 41.66896 38050 ft 418 kts 287°
2026-04-13 13:14 38.54851 41.59786 38054 ft 418 kts 287°
2026-04-13 13:14 38.56546 41.52706 38041 ft 416 kts 287°
2026-04-13 13:15 38.58144 41.45595 38035 ft 417 kts 279°
2026-04-13 13:15 38.58193 41.41906 38021 ft 417 kts 263°
2026-04-13 13:15 38.57424 41.38313 38053 ft 424 kts 250°
2026-04-13 13:16 38.54276 41.31842 38097 ft 433 kts 239°
2026-04-13 13:16 38.50737 41.25608 38043 ft 433 kts 238°
2026-04-13 13:17 38.47126 41.19441 38043 ft 434 kts 238°
2026-04-13 13:17 38.43496 41.13306 38025 ft 432 kts 237°
2026-04-13 13:18 38.39820 41.07232 38029 ft 432 kts 237°
2026-04-13 13:18 38.36172 41.01211 38001 ft 432 kts 237°
2026-04-13 13:19 38.32503 40.95163 38020 ft 430 kts 238°
2026-04-13 13:19 38.28837 40.89145 38013 ft 431 kts 237°
2026-04-13 13:20 38.25067 40.83211 38015 ft 431 kts 237°
2026-04-13 13:20 38.21475 40.77141 38025 ft 430 kts 239°
2026-04-13 13:21 38.17886 40.71066 38015 ft 429 kts 239°
2026-04-13 13:21 38.14295 40.65008 38015 ft 429 kts 239°
2026-04-13 13:22 38.10674 40.58973 38016 ft 430 kts 238°
2026-04-13 13:22 38.07019 40.52969 38007 ft 429 kts 238°
2026-04-13 13:23 38.03367 40.46973 38009 ft 429 kts 238°
2026-04-13 13:23 37.99714 40.40986 38014 ft 430 kts 239°
2026-04-13 13:24 37.96056 40.35000 38010 ft 429 kts 239°
2026-04-13 13:24 37.92395 40.29022 38031 ft 429 kts 239°
2026-04-13 13:25 37.88735 40.23055 38005 ft 429 kts 239°
2026-04-13 13:25 37.86121 40.16521 38018 ft 416 kts 253°
2026-04-13 13:26 37.85016 40.13143 38009 ft 415 kts 253°
2026-04-13 13:26 37.82851 40.06352 38022 ft 416 kts 254°
2026-04-13 13:27 37.80717 39.99568 38006 ft 414 kts 254°
2026-04-13 13:27 37.78597 39.92826 38027 ft 412 kts 254°
2026-04-13 13:28 37.76481 39.86109 38032 ft 412 kts 254°
2026-04-13 13:28 37.74358 39.79390 38035 ft 411 kts 254°
2026-04-13 13:29 37.72245 39.72714 38032 ft 411 kts 255°
2026-04-13 13:29 37.70118 39.66014 38036 ft 411 kts 255°
2026-04-13 13:30 37.67991 39.59326 38044 ft 411 kts 255°
2026-04-13 13:30 37.65857 39.52634 38042 ft 411 kts 255°
2026-04-13 13:31 37.63723 39.45956 38041 ft 408 kts 255°
2026-04-13 13:31 37.61599 39.39324 38048 ft 407 kts 255°
2026-04-13 13:32 37.59472 39.32702 38043 ft 408 kts 255°
2026-04-13 13:32 37.57337 39.26062 38055 ft 409 kts 255°
2026-04-13 13:33 37.55174 39.19425 38069 ft 409 kts 255°
2026-04-13 13:33 37.53028 39.12778 38069 ft 409 kts 255°
2026-04-13 13:34 37.50882 39.06128 38069 ft 410 kts 255°
2026-04-13 13:34 37.48733 38.99482 38071 ft 410 kts 255°
2026-04-13 13:35 37.46597 38.92890 38072 ft 408 kts 255°
2026-04-13 13:35 37.44346 38.86328 38073 ft 409 kts 254°
2026-04-13 13:36 37.42065 38.79756 38078 ft 410 kts 254°
2026-04-13 13:36 37.39787 38.73196 38073 ft 409 kts 254°
2026-04-13 13:37 37.37515 38.66664 38080 ft 407 kts 254°
2026-04-13 13:37 37.35238 38.60133 38074 ft 408 kts 254°
2026-04-13 13:38 37.32958 38.53606 38078 ft 409 kts 254°
2026-04-13 13:38 37.30673 38.47077 38036 ft 408 kts 254°
2026-04-13 13:39 37.28397 38.40586 38086 ft 405 kts 254°
2026-04-13 13:39 37.26127 38.34124 38083 ft 405 kts 254°
2026-04-13 13:40 37.23851 38.27660 38075 ft 405 kts 254°
2026-04-13 13:40 37.21573 38.21203 38054 ft 405 kts 254°
2026-04-13 13:41 37.19295 38.14758 38072 ft 403 kts 254°
2026-04-13 13:41 37.17024 38.08381 38079 ft 403 kts 254°
2026-04-13 13:42 37.14731 38.01971 38070 ft 403 kts 253°
2026-04-13 13:42 37.12432 37.95556 38079 ft 404 kts 253°
2026-04-13 13:43 37.10134 37.89156 38056 ft 401 kts 254°
2026-04-13 13:43 37.07841 37.82783 38067 ft 402 kts 254°
2026-04-13 13:44 37.05545 37.76413 38077 ft 401 kts 254°
2026-04-13 13:44 37.03282 37.70041 38067 ft 401 kts 255°
2026-04-13 13:45 37.01019 37.63688 38059 ft 400 kts 255°
2026-04-13 13:45 36.98758 37.57352 37704 ft 397 kts 255°
2026-04-13 13:45 36.97631 37.54198 37040 ft 396 kts 255°
2026-04-13 13:46 36.96518 37.51089 36770 ft 386 kts 255°
2026-04-13 13:46 36.95613 37.48022 36401 ft 366 kts 268°
2026-04-13 13:46 36.95414 37.44935 35868 ft 353 kts 276°
2026-04-13 13:46 36.95339 37.41879 35342 ft 351 kts 276°
2026-04-13 13:47 36.95305 37.38835 34839 ft 349 kts 277°
2026-04-13 13:47 36.95297 37.35810 34305 ft 347 kts 277°
2026-04-13 13:47 36.95303 37.32811 33806 ft 344 kts 277°
2026-04-13 13:47 36.95318 37.29831 33270 ft 341 kts 278°
2026-04-13 13:48 36.95337 37.26885 32788 ft 338 kts 278°
2026-04-13 13:48 36.95357 37.23955 32319 ft 335 kts 278°
2026-04-13 13:48 36.95378 37.21064 31852 ft 332 kts 278°
2026-04-13 13:48 36.95398 37.18188 31399 ft 329 kts 278°
2026-04-13 13:49 36.95410 37.15337 30946 ft 327 kts 278°
2026-04-13 13:49 36.95404 37.12532 30467 ft 326 kts 278°
2026-04-13 13:49 36.95398 37.09670 30010 ft 323 kts 278°
2026-04-13 13:49 36.95392 37.06913 29564 ft 320 kts 278°
2026-04-13 13:50 36.95386 37.04140 29130 ft 317 kts 278°
2026-04-13 13:50 36.95380 37.01403 28697 ft 313 kts 278°
2026-04-13 13:50 36.95373 36.98697 28280 ft 308 kts 277°
2026-04-13 13:50 36.95365 36.96037 27904 ft 304 kts 277°
2026-04-13 13:51 36.95357 36.93404 27518 ft 301 kts 278°
2026-04-13 13:51 36.95349 36.90804 27153 ft 298 kts 278°
2026-04-13 13:51 36.95341 36.88226 26760 ft 296 kts 278°
2026-04-13 13:51 36.95332 36.85664 26359 ft 294 kts 278°
2026-04-13 13:52 36.95322 36.83118 25929 ft 292 kts 277°
2026-04-13 13:52 36.95313 36.80590 25612 ft 290 kts 277°
2026-04-13 13:52 36.95303 36.78086 25263 ft 288 kts 277°
2026-04-13 13:52 36.95292 36.75591 24905 ft 287 kts 277°
2026-04-13 13:53 36.95280 36.73107 24561 ft 285 kts 277°
2026-04-13 13:53 36.95269 36.70626 24221 ft 288 kts 277°
2026-04-13 13:53 36.95257 36.68101 23871 ft 292 kts 277°
2026-04-13 13:53 36.95242 36.65558 23501 ft 293 kts 277°
2026-04-13 13:54 36.95230 36.63023 23094 ft 291 kts 277°
2026-04-13 13:54 36.95216 36.60504 22732 ft 288 kts 277°
2026-04-13 13:54 36.95202 36.58020 22373 ft 283 kts 277°
2026-04-13 13:54 36.95187 36.55578 22033 ft 278 kts 278°
2026-04-13 13:55 36.95171 36.53179 21718 ft 274 kts 277°
2026-04-13 13:55 36.95157 36.50819 21406 ft 271 kts 277°
2026-04-13 13:55 36.95147 36.48443 21050 ft 277 kts 278°
2026-04-13 13:55 36.95391 36.46072 20659 ft 277 kts 285°
2026-04-13 13:56 36.95687 36.43685 20354 ft 278 kts 284°
2026-04-13 13:56 36.95969 36.41295 20026 ft 278 kts 284°
2026-04-13 13:56 36.96242 36.38905 19707 ft 278 kts 284°
2026-04-13 13:56 36.96511 36.36507 19372 ft 278 kts 284°
2026-04-13 13:57 36.96776 36.34104 19025 ft 278 kts 284°
2026-04-13 13:57 36.97033 36.31757 18717 ft 274 kts 284°
2026-04-13 13:57 36.97291 36.29404 18372 ft 273 kts 284°
2026-04-13 13:57 36.97544 36.27055 18006 ft 271 kts 284°
2026-04-13 13:58 36.97796 36.24733 17663 ft 268 kts 284°
2026-04-13 13:58 36.98044 36.22434 17335 ft 265 kts 284°
2026-04-13 13:58 36.98289 36.20165 17005 ft 262 kts 284°
2026-04-13 13:58 36.98530 36.17918 16680 ft 259 kts 284°
2026-04-13 13:59 36.98773 36.15666 16375 ft 264 kts 284°
2026-04-13 13:59 36.99020 36.13365 16063 ft 269 kts 284°
2026-04-13 13:59 36.99270 36.11036 15756 ft 271 kts 284°
2026-04-13 13:59 36.99439 36.09458 15545 ft 271 kts 284°
2026-04-13 14:00 36.99688 36.07123 15228 ft 270 kts 284°
2026-04-13 14:00 36.99935 36.04808 14915 ft 267 kts 284°
2026-04-13 14:00 37.00179 36.02514 14606 ft 265 kts 284°
2026-04-13 14:00 37.00416 36.00274 14312 ft 262 kts 284°
2026-04-13 14:01 37.00658 35.97992 13997 ft 260 kts 284°
2026-04-13 14:01 37.00890 35.95791 13681 ft 258 kts 284°
2026-04-13 14:01 37.01126 35.93560 13351 ft 261 kts 284°
2026-04-13 14:01 37.01366 35.91282 13028 ft 267 kts 283°
2026-04-13 14:02 37.01609 35.88968 12714 ft 270 kts 283°
2026-04-13 14:02 37.01854 35.86639 12401 ft 270 kts 283°
2026-04-13 14:02 37.02099 35.84307 12129 ft 270 kts 283°
2026-04-13 14:02 37.02348 35.81969 11824 ft 272 kts 282°
2026-04-13 14:03 37.02597 35.79624 11538 ft 272 kts 282°
2026-04-13 14:03 37.02846 35.77280 11263 ft 272 kts 282°
2026-04-13 14:03 37.03094 35.74935 10979 ft 272 kts 282°
2026-04-13 14:03 37.03342 35.72588 10686 ft 272 kts 282°
2026-04-13 14:04 37.03588 35.70250 10407 ft 271 kts 282°
2026-04-13 14:04 37.03835 35.67907 10087 ft 271 kts 281°
2026-04-13 14:04 37.04081 35.65571 9704 ft 271 kts 281°
2026-04-13 14:04 37.04325 35.63240 9357 ft 269 kts 281°
2026-04-13 14:05 37.04567 35.60930 9063 ft 266 kts 281°
2026-04-13 14:05 37.04807 35.58637 8761 ft 264 kts 281°
2026-04-13 14:05 37.05046 35.56346 8486 ft 267 kts 280°
2026-04-13 14:05 37.05282 35.54077 8183 ft 258 kts 280°
2026-04-13 14:06 37.05509 35.51895 7912 ft 247 kts 280°
2026-04-13 14:06 37.05724 35.49810 7650 ft 236 kts 280°
2026-04-13 14:06 37.05932 35.47810 7400 ft 227 kts 280°
2026-04-13 14:06 37.06128 35.45897 7167 ft 217 kts 281°
2026-04-13 14:07 37.06319 35.44042 6923 ft 215 kts 280°
2026-04-13 14:07 37.06513 35.42174 6708 ft 216 kts 280°
2026-04-13 14:07 37.06706 35.40305 6498 ft 217 kts 281°
2026-04-13 14:07 37.06898 35.38431 6281 ft 217 kts 281°
2026-04-13 14:08 37.07089 35.36563 6021 ft 216 kts 280°
2026-04-13 14:08 37.07279 35.34708 5749 ft 214 kts 281°
2026-04-13 14:08 37.07468 35.32873 5507 ft 212 kts 280°
2026-04-13 14:08 37.07653 35.31056 5288 ft 209 kts 279°
2026-04-13 14:09 37.07840 35.29232 5057 ft 213 kts 278°
2026-04-13 14:09 37.08028 35.27381 4840 ft 215 kts 279°
2026-04-13 14:09 37.08217 35.25533 4622 ft 212 kts 278°
2026-04-13 14:09 37.08376 35.23772 4444 ft 201 kts 271°
2026-04-13 14:10 37.07994 35.22130 4120 ft 199 kts 237°
2026-04-13 14:10 37.07007 35.20945 3804 ft 197 kts 216°
2026-04-13 14:10 37.05874 35.20009 3524 ft 194 kts 213°
2026-04-13 14:10 37.04753 35.19112 3279 ft 187 kts 213°
2026-04-13 14:11 37.03689 35.18271 3024 ft 176 kts 213°
2026-04-13 14:11 37.02689 35.17486 2804 ft 162 kts 213°
2026-04-13 14:11 37.01778 35.16776 2561 ft 148 kts 214°
2026-04-13 14:11 37.00938 35.16115 2426 ft 138 kts 212°
2026-04-13 14:12 37.00137 35.15495 2242 ft 133 kts 212°
2026-04-13 14:12 36.99349 35.14898 2087 ft 130 kts 213°
2026-04-13 14:12 36.98580 35.14316 1898 ft 129 kts 213°
2026-04-13 14:12 36.97814 35.13731 1722 ft 128 kts 213°
2026-04-13 14:13 36.97051 35.13145 1541 ft 131 kts 211°
2026-04-13 14:13 36.96271 35.12552 1385 ft 131 kts 213°
2026-04-13 14:13 36.95496 35.11958 1200 ft 132 kts 213°
2026-04-13 14:14 36.93917 35.10760 850 ft 131 kts 212°
2026-04-13 14:14 36.93134 35.10163 677 ft 132 kts 213°
2026-04-13 14:14 36.92342 35.09568 475 ft 133 kts 214°
2026-04-13 14:14 36.91559 35.08991 302 ft 128 kts 213°
2026-04-13 14:15 36.90818 35.08403 155 ft 126 kts 214°
2026-04-13 14:15 36.90100 35.07837 53 ft 112 kts 213°
2026-04-13 14:15 36.89563 35.07433 51 ft 58 kts 210°
2026-04-13 14:15 36.89314 35.07241 49 ft 29 kts 221°
2026-04-13 14:16 36.89327 35.07098 46 ft 19 kts 305°
2026-04-13 14:16 36.89402 35.06956 50 ft 20 kts 302°
2026-04-13 14:16 36.89481 35.06795 49 ft 23 kts 301°
2026-04-13 14:16 36.89568 35.06683 49 ft 11 kts
2026-04-13 14:17 36.89630 35.06730 48 ft 12 kts 32°
2026-04-13 14:17 36.89708 35.06791 47 ft 15 kts 32°
2026-04-13 14:17 36.89805 35.06866 51 ft 18 kts 31°
2026-04-13 14:17 36.89921 35.06956 51 ft 21 kts 32°
2026-04-13 14:18 36.90001 35.07010 48 ft 1 kts 356°
2026-04-13 14:18 36.90021 35.06993 48 ft 4 kts 311°
2026-04-13 14:18 36.90046 35.06944 47 ft 9 kts 301°
2026-04-13 14:18 36.90053 35.06930 47 ft 0 kts 301°